Provincetown, MA

4:13 AM EDT on July 24, 2017 (GMT -0400)
Provincetown Municipal

Weather History for KPVC - November, 2013

Change the Weather History Date:

Wednesday, November 27, 2013

  Actual Average Record
Temperature  
Mean Temperature 51 °F -  
Max Temperature 60 °F 47 °F 60 °F (1999)
Min Temperature 42 °F 36 °F 20 °F (1957)
Degree Days  
Heating Degree Days 14    
Growing Degree Days 1 (Base 50)    
Moisture  
Dew Point 51 °F    
Average Humidity 93    
Maximum Humidity 100    
Minimum Humidity 76    
Precipitation  
Precipitation 0.05 in - - ()
Sea Level Pressure  
Sea Level Pressure 29.49 in    
Wind  
Wind Speed 18 mph (South)    
Max Wind Speed 31 mph    
Max Gust Speed 46 mph    
Visibility 7 miles    
Events      
Averages and records for this station are not official NWS values.
T = Trace of Precipitation, MM = Missing Value Source: NWS Daily Summary

Daily Weather History Graph

Daily Weather History Graph

Search for Another Location

Airport or City:

Trip Planner

Search our weather history database for the weather conditions in past years. The results will help you decide how hot, cold, wet, or windy it might be!

Date:

Astronomy

Nov. 27, 2013 Rise Set
Actual Time 6:45 AM EST 4:11 PM EST
Civil Twilight 6:14 AM EST 4:42 PM EST
Nautical Twilight 5:39 AM EST 5:17 PM EST
Astronomical Twilight 5:06 AM EST 5:50 PM EST
Moon 12:38 AM EST (11/27) 12:52 PM EST (11/27)
Length of Visible Light 10h 28m
Length of Day
9h 26m
Waning Crescent, 32% of the Moon is Illuminated
Nov 27
Waning Crescent
Dec 2
New
Dec 9
First Quarter
Dec 17
Full
Dec 25
Last Quarter

Hourly Weather History & Observations

Time (EST) Temp. Windchill Dew Point Humidity Pressure Visibility Wind Dir Wind Speed Gust Speed Precip Events Conditions
12:15 AM 46.4 °F 40.4 °F 44.6 °F 93% 30.07 in 10.0 mi ESE 13.8 mph 18.4 mph N/A   Overcast
12:35 AM 48.2 °F - 46.4 °F 93% 30.05 in 10.0 mi SE 11.5 mph - N/A   Overcast
12:55 AM 48.2 °F - 46.4 °F 93% 30.02 in 10.0 mi SE 13.8 mph 20.7 mph 0.01 in   Overcast
1:15 AM 48.2 °F - 48.2 °F 100% 30.01 in 10.0 mi SE 12.7 mph 21.9 mph N/A   Overcast
1:35 AM 50.0 °F - 48.2 °F 94% 30.00 in 10.0 mi SE 12.7 mph 19.6 mph 0.01 in   Overcast
1:55 AM 51.8 °F - 48.2 °F 88% 29.99 in 10.0 mi SE 13.8 mph 24.2 mph 0.02 in   Overcast
2:15 AM 50.0 °F - 48.2 °F 94% 29.96 in 8.0 mi SE 15.0 mph 23.0 mph N/A   Overcast
2:35 AM 50.0 °F - 48.2 °F 94% 29.93 in 10.0 mi SE 16.1 mph 21.9 mph N/A   Overcast
2:55 AM 51.8 °F - 50.0 °F 94% 29.90 in 10.0 mi SE 15.0 mph 24.2 mph N/A   Overcast
3:15 AM 51.8 °F - 48.2 °F 88% 29.87 in 10.0 mi SE 18.4 mph 27.6 mph N/A   Overcast
3:35 AM 51.8 °F - 50.0 °F 94% 29.85 in 10.0 mi SE 16.1 mph 25.3 mph N/A   Overcast
3:55 AM 51.8 °F - 48.2 °F 88% 29.82 in 10.0 mi SE 17.3 mph 25.3 mph N/A   Overcast
4:15 AM 53.6 °F - 50.0 °F 88% 29.81 in 10.0 mi SE 21.9 mph 29.9 mph N/A   Overcast
4:35 AM 51.8 °F - 50.0 °F 94% 29.79 in 10.0 mi SE 17.3 mph 26.5 mph N/A   Overcast
4:55 AM 53.6 °F - 50.0 °F 88% 29.76 in 8.0 mi SSE 20.7 mph 32.2 mph N/A   Overcast
5:15 AM 53.6 °F - 50.0 °F 88% 29.73 in 8.0 mi SSE 20.7 mph 29.9 mph N/A   Overcast
5:35 AM 53.6 °F - 51.8 °F 94% 29.71 in 8.0 mi SSE 17.3 mph 31.1 mph N/A   Overcast
5:55 AM 53.6 °F - 51.8 °F 94% 29.68 in 5.0 mi SE 21.9 mph 33.4 mph N/A   Overcast
6:15 AM 53.6 °F - 51.8 °F 94% 29.64 in 4.0 mi SSE 18.4 mph 33.4 mph N/A   Overcast
6:35 AM 53.6 °F - 51.8 °F 94% 29.61 in 7.0 mi SSE 23.0 mph 39.1 mph N/A   Overcast
6:55 AM 53.6 °F - 53.6 °F 100% 29.59 in 7.0 mi SSE 26.5 mph 35.7 mph N/A   Overcast
7:15 AM 55.4 °F - 53.6 °F 94% 29.57 in 5.0 mi SSE 26.5 mph 38.0 mph N/A   Overcast
7:35 AM 55.4 °F - 53.6 °F 94% 29.55 in 5.0 mi SSE 27.6 mph 40.3 mph N/A   Overcast
7:55 AM 55.4 °F - 55.4 °F 100% 29.54 in 5.0 mi SSE 29.9 mph 44.9 mph N/A   Overcast
8:15 AM 55.4 °F - 53.6 °F 94% 29.53 in 4.0 mi South 27.6 mph 41.4 mph N/A   Overcast
8:35 AM 55.4 °F - 53.6 °F 94% 29.51 in 4.0 mi South 27.6 mph 36.8 mph N/A   Overcast
8:55 AM 55.4 °F - 53.6 °F 94% 29.50 in 3.0 mi South 27.6 mph 41.4 mph N/A   Overcast
9:15 AM 55.4 °F - 55.4 °F 100% 29.46 in 2.0 mi SSE 31.1 mph 42.6 mph N/A   Overcast
9:35 AM 57.2 °F - 55.4 °F 94% 29.45 in 2.5 mi South 27.6 mph 46.0 mph N/A   Overcast
9:55 AM 57.2 °F - 55.4 °F 94% 29.44 in 2.5 mi South 27.6 mph 46.0 mph N/A   Overcast
10:15 AM 57.2 °F - 55.4 °F 94% 29.43 in 2.5 mi South 27.6 mph 41.4 mph N/A   Overcast
10:35 AM 57.2 °F - 55.4 °F 94% 29.41 in 2.0 mi South 31.1 mph 42.6 mph N/A   Overcast
10:55 AM 57.2 °F - 55.4 °F 94% 29.41 in 2.0 mi South 25.3 mph 36.8 mph 0.01 in   Overcast
11:15 AM 57.2 °F - 55.4 °F 94% 29.43 in 1.5 mi SW 25.3 mph 36.8 mph N/A   Overcast
11:35 AM 59.0 °F - 57.2 °F 94% 29.40 in 2.5 mi SSW 25.3 mph 44.9 mph N/A   Overcast
11:55 AM 57.2 °F - 55.4 °F 94% 29.38 in 3.0 mi South 20.7 mph 28.8 mph N/A   Overcast
12:15 PM 57.2 °F - 57.2 °F 100% 29.35 in 5.0 mi South 23.0 mph 36.8 mph N/A   Overcast
12:35 PM 57.2 °F - 57.2 °F 100% 29.32 in 5.0 mi South 24.2 mph 38.0 mph N/A   Overcast
12:55 PM 59.0 °F - 57.2 °F 94% 29.29 in 7.0 mi South 24.2 mph 36.8 mph N/A   Overcast
1:15 PM 59.0 °F - 57.2 °F 94% 29.27 in 3.0 mi South 23.0 mph 40.3 mph N/A   Overcast
1:35 PM 60.8 °F - 57.2 °F 88% 29.25 in 4.0 mi SSE 21.9 mph 28.8 mph N/A   Overcast
1:55 PM 57.2 °F - 57.2 °F 100% 29.24 in 3.0 mi South 19.6 mph 34.5 mph N/A   Overcast
2:15 PM 57.2 °F - 55.4 °F 94% 29.25 in 2.5 mi SSW 19.6 mph 24.2 mph N/A   Overcast
2:35 PM 55.4 °F - 53.6 °F 94% 29.27 in 3.0 mi SW 17.3 mph 25.3 mph N/A   Overcast
2:55 PM 55.4 °F - 55.4 °F 100% 29.27 in 5.0 mi SSW 10.4 mph - N/A   Overcast
3:15 PM 57.2 °F - 55.4 °F 94% 29.27 in 8.0 mi South 9.2 mph - N/A   Overcast
3:35 PM 57.2 °F - 55.4 °F 94% 29.28 in 6.0 mi South 10.4 mph - N/A   Overcast
3:55 PM 55.4 °F - 55.4 °F 100% 29.28 in 3.0 mi South 12.7 mph 16.1 mph N/A   Overcast
4:15 PM 55.4 °F - 55.4 °F 100% 29.27 in 7.0 mi South 10.4 mph 18.4 mph N/A   Overcast
4:35 PM 55.4 °F - 55.4 °F 100% 29.26 in 9.0 mi South 9.2 mph - N/A   Mostly Cloudy
4:55 PM 55.4 °F - 55.4 °F 100% 29.24 in 10.0 mi SSE 9.2 mph - N/A   Overcast
5:15 PM 57.2 °F - 55.4 °F 94% 29.22 in 9.0 mi SSE 9.2 mph - N/A   Mostly Cloudy
5:35 PM 57.2 °F - 55.4 °F 94% 29.21 in 6.0 mi SSE 8.1 mph - N/A   Overcast
5:55 PM 57.2 °F - 55.4 °F 94% 29.24 in 6.0 mi South 10.4 mph - N/A   Overcast
6:15 PM 57.2 °F - 55.4 °F 94% 29.22 in 4.0 mi South 8.1 mph - N/A   Overcast
6:35 PM 55.4 °F - 53.6 °F 94% 29.24 in 5.0 mi SW 13.8 mph - N/A   Overcast
6:55 PM 51.8 °F - 48.2 °F 88% 29.23 in 8.0 mi NW 8.1 mph - N/A   Overcast
7:15 PM 50.0 °F - 48.2 °F 94% 29.23 in 10.0 mi WNW 6.9 mph - N/A   Overcast
7:35 PM 48.2 °F - 48.2 °F 100% 29.18 in 10.0 mi NNW 8.1 mph - N/A   Overcast
7:55 PM 48.2 °F - 46.4 °F 93% 29.20 in 10.0 mi NW 11.5 mph - N/A   Overcast
8:15 PM 48.2 °F - 46.4 °F 93% 29.22 in 10.0 mi WNW 15.0 mph 19.6 mph N/A   Overcast
8:35 PM 48.2 °F - 46.4 °F 93% 29.27 in 10.0 mi WNW 21.9 mph 27.6 mph N/A   Overcast
8:55 PM 46.4 °F 39.2 °F 44.6 °F 93% 29.29 in 10.0 mi WNW 18.4 mph 31.1 mph N/A   Overcast
9:15 PM 46.4 °F 37.9 °F 42.8 °F 87% 29.31 in 10.0 mi WNW 25.3 mph 33.4 mph 0.01 in   Overcast
9:35 PM 44.6 °F 35.5 °F 39.2 °F 81% 29.31 in 10.0 mi WNW 25.3 mph 36.8 mph 0.01 in   Overcast
9:55 PM 42.8 °F 32.9 °F 39.2 °F 87% 29.33 in 6.0 mi WNW 26.5 mph 33.4 mph 0.01 in   Overcast
10:15 PM 42.8 °F 33.3 °F 37.4 °F 81% 29.35 in 9.0 mi WNW 24.2 mph 33.4 mph N/A   Overcast
10:35 PM 42.8 °F 34.0 °F 37.4 °F 81% 29.37 in 10.0 mi WNW 20.7 mph 28.8 mph N/A   Overcast
10:55 PM 42.8 °F 33.5 °F 37.4 °F 81% 29.37 in 10.0 mi WNW 23.0 mph 32.2 mph N/A   Overcast
11:15 PM 42.8 °F 34.8 °F 35.6 °F 76% 29.41 in 10.0 mi WNW 17.3 mph 29.9 mph N/A   Overcast
11:35 PM 42.8 °F 34.3 °F 35.6 °F 76% 29.42 in 10.0 mi WNW 19.6 mph 24.2 mph N/A   Overcast
11:55 PM 42.8 °F 34.8 °F 35.6 °F 76% 29.43 in 10.0 mi West 17.3 mph 26.5 mph N/A   Overcast